Weather History for Mineral Point, WI

Change the Weather History Date:

Friday, January 4, 2013

  Actual Average (KLNR) Record (KLNR)
Temperature  
Mean Temperature 20 °F -  
Max Temperature 30 °F 27 °F 48 °F (2007)
Min Temperature 10 °F 12 °F -4 °F (1999)
Degree Days  
Heating Degree Days 45    
Moisture  
Dew Point 15 °F    
Average Humidity 73    
Maximum Humidity 86    
Minimum Humidity 60    
Precipitation  
Precipitation 0.00 in - - ()
Sea Level Pressure  
Sea Level Pressure 30.12 in    
Wind  
Wind Speed 9 mph (WSW)    
Max Wind Speed 18 mph    
Max Gust Speed 23 mph    
Visibility 10 miles    
Events      
Averages and records for this station are not official NWS values.
T = Trace of Precipitation, MM = Missing Value Source: NWS Daily Summary

Daily Weather History Graph

Daily Weather History Graph

Search for Another Location

Airport:

Trip Planner

Search our weather history database for the weather conditions in past years. The results will help you decide how hot, cold, wet, or windy it might be!

Date:

Astronomy

Jan. 04, 2013 Rise Set
Actual Time 7:31 AM CST 4:40 PM CST
Civil Twilight 6:59 AM CST 5:12 PM CST
Nautical Twilight 6:24 AM CST 5:47 PM CST
Astronomical Twilight 5:50 AM CST 6:22 PM CST
Moon No Moon Rise 11:03 AM CST (1/4)
Length of Visible Light 10h 12m
Length of Day
9h 08m
Waning Gibbous, 55% of the Moon is Illuminated
Jan 4
Waning Gibbous
Jan 4
Last Quarter
Jan 11
New
Jan 18
First Quarter
Jan 26
Full

Hourly Weather History & Observations

Time (CST) Temp. Windchill Dew Point Humidity Pressure Visibility Wind Dir Wind Speed Gust Speed Precip Events Conditions
12:15 AM 10.4 °F 0.8 °F 5.0 °F 79% 30.17 in 10.0 mi WSW 5.8 mph - N/A   Clear
12:35 AM 10.4 °F -0.4 °F 5.0 °F 79% 30.17 in 10.0 mi WSW 6.9 mph - N/A   Clear
12:55 AM 10.4 °F -1.5 °F 5.0 °F 79% 30.17 in 10.0 mi WSW 8.1 mph - N/A   Clear
1:15 AM 10.4 °F -1.5 °F 5.0 °F 79% 30.16 in 10.0 mi WSW 8.1 mph - N/A   Clear
1:35 AM 10.4 °F -3.3 °F 5.0 °F 79% 30.16 in 10.0 mi WSW 10.4 mph - N/A   Clear
1:55 AM 10.4 °F -2.4 °F 5.0 °F 79% 30.15 in 10.0 mi WSW 9.2 mph - N/A   Clear
2:15 AM 10.4 °F -2.4 °F 6.8 °F 85% 30.15 in 10.0 mi WSW 9.2 mph - N/A   Clear
2:35 AM 10.4 °F -2.4 °F 6.8 °F 85% 30.15 in 10.0 mi SW 9.2 mph - N/A   Clear
2:55 AM 12.2 °F -1.8 °F 8.6 °F 85% 30.14 in 10.0 mi SW 11.5 mph - N/A   Clear
5:55 AM 14.0 °F 2.0 °F 10.4 °F 86% 30.11 in 10.0 mi WSW 9.2 mph - N/A   Clear
6:15 AM 14.0 °F 0.5 °F 10.4 °F 86% 30.10 in 10.0 mi WSW 11.5 mph 17.3 mph N/A   Clear
6:35 AM 15.8 °F 2.7 °F 10.4 °F 79% 30.09 in 10.0 mi WSW 11.5 mph - N/A   Clear
6:55 AM 15.8 °F 3.4 °F 10.4 °F 79% 30.10 in 10.0 mi WSW 10.4 mph - N/A   Clear
7:35 AM 15.8 °F 2.7 °F 12.2 °F 86% 30.11 in 10.0 mi WSW 11.5 mph 16.1 mph N/A   Clear
7:55 AM 17.6 °F 5.7 °F 12.2 °F 79% 30.11 in 10.0 mi WSW 10.4 mph - N/A   Clear
8:15 AM 17.6 °F 6.4 °F 12.2 °F 79% 30.10 in 10.0 mi WSW 9.2 mph - N/A   Clear
8:35 AM 17.6 °F 3.2 °F 12.2 °F 79% 30.09 in 10.0 mi WSW 15.0 mph 21.9 mph N/A   Clear
8:55 AM 19.4 °F 6.0 °F 14.0 °F 80% 30.09 in 10.0 mi WSW 13.8 mph 21.9 mph N/A   Clear
9:15 AM 19.4 °F 5.5 °F 14.0 °F 80% 30.11 in 10.0 mi WSW 15.0 mph - N/A   Clear
9:35 AM 21.2 °F 8.3 °F 14.0 °F 74% 30.10 in 10.0 mi WSW 13.8 mph - N/A   Clear
9:55 AM 21.2 °F 9.5 °F 14.0 °F 74% 30.11 in 10.0 mi WSW 11.5 mph - N/A   Clear
10:15 AM 23.0 °F 10.1 °F 14.0 °F 68% 30.11 in 10.0 mi WSW 15.0 mph - N/A   Clear
10:35 AM 23.0 °F 9.6 °F 14.0 °F 68% 30.11 in 10.0 mi WSW 16.1 mph - N/A   Clear
10:55 AM 24.8 °F 12.9 °F 15.8 °F 69% 30.11 in 10.0 mi WSW 13.8 mph 19.6 mph N/A   Clear
11:15 AM 26.6 °F 15.7 °F 15.8 °F 64% 30.10 in 10.0 mi WSW 12.7 mph - N/A   Clear
11:35 AM 26.6 °F 16.2 °F 15.8 °F 64% 30.09 in 10.0 mi WSW 11.5 mph - N/A   Clear
11:55 AM 28.4 °F 19.1 °F 17.6 °F 64% 30.09 in 10.0 mi WSW 10.4 mph 17.3 mph N/A   Clear
12:15 PM 28.4 °F 17.0 °F 17.6 °F 64% 30.09 in 10.0 mi WSW 15.0 mph - N/A   Clear
12:35 PM 28.4 °F 17.5 °F 17.6 °F 64% 30.08 in 10.0 mi West 13.8 mph - N/A   Clear
12:55 PM 30.2 °F 20.2 °F 17.6 °F 60% 30.07 in 10.0 mi WSW 12.7 mph - N/A   Clear
1:15 PM 30.2 °F 18.9 °F 17.6 °F 60% 30.07 in 10.0 mi West 16.1 mph 20.7 mph N/A   Clear
1:35 PM 30.2 °F 19.3 °F 17.6 °F 60% 30.07 in 10.0 mi West 15.0 mph 18.4 mph N/A   Clear
1:55 PM 30.2 °F 19.8 °F 17.6 °F 60% 30.08 in 10.0 mi West 13.8 mph 19.6 mph N/A   Clear
2:15 PM 30.2 °F 18.1 °F 17.6 °F 60% 30.08 in 10.0 mi West 18.4 mph 23.0 mph N/A   Clear
2:35 PM 30.2 °F 18.5 °F 17.6 °F 60% 30.09 in 10.0 mi West 17.3 mph - N/A   Clear
2:55 PM 30.2 °F 19.8 °F 17.6 °F 60% 30.09 in 10.0 mi West 13.8 mph - N/A   Clear
3:15 PM 30.2 °F 21.9 °F 17.6 °F 60% 30.10 in 10.0 mi West 9.2 mph - N/A   Clear
3:35 PM 30.2 °F 21.3 °F 19.4 °F 64% 30.10 in 10.0 mi West 10.4 mph - N/A   Clear
3:55 PM 30.2 °F 21.9 °F 19.4 °F 64% 30.11 in 10.0 mi West 9.2 mph - N/A   Clear
4:15 PM 30.2 °F 21.9 °F 17.6 °F 60% 30.11 in 10.0 mi West 9.2 mph - N/A   Clear
4:35 PM 28.4 °F 21.2 °F 17.6 °F 64% 30.12 in 10.0 mi WSW 6.9 mph - N/A   Clear
4:55 PM 28.4 °F 22.2 °F 17.6 °F 64% 30.13 in 10.0 mi WSW 5.8 mph - N/A   Clear
5:15 PM 26.6 °F 21.2 °F 17.6 °F 69% 30.13 in 10.0 mi WSW 4.6 mph - N/A   Clear
5:35 PM 26.6 °F 21.2 °F 17.6 °F 69% 30.14 in 10.0 mi WSW 4.6 mph - N/A   Clear
5:55 PM 24.8 °F 16.9 °F 17.6 °F 74% 30.14 in 10.0 mi West 6.9 mph - N/A   Clear
6:15 PM 26.6 °F 20.0 °F 17.6 °F 69% 30.14 in 10.0 mi WSW 5.8 mph - N/A   Clear
6:35 PM 26.6 °F 20.0 °F 19.4 °F 74% 30.15 in 10.0 mi SW 5.8 mph - N/A   Clear
6:55 PM 24.8 °F 16.1 °F 17.6 °F 74% 30.15 in 10.0 mi SW 8.1 mph - N/A   Clear
7:15 PM 26.6 °F 21.2 °F 19.4 °F 74% 30.15 in 10.0 mi WSW 4.6 mph - N/A   Clear
7:35 PM 24.8 °F 17.9 °F 19.4 °F 80% 30.15 in 10.0 mi WSW 5.8 mph - N/A   Clear
7:55 PM 24.8 °F 16.9 °F 19.4 °F 80% 30.15 in 10.0 mi SW 6.9 mph - N/A   Clear
8:15 PM 26.6 °F 19.1 °F 19.4 °F 74% 30.15 in 10.0 mi SW 6.9 mph - N/A   Clear
8:35 PM 26.6 °F 22.6 °F 19.4 °F 74% 30.15 in 10.0 mi WSW 3.5 mph - N/A   Clear
8:55 PM 24.8 °F 19.1 °F 19.4 °F 80% 30.16 in 10.0 mi WSW 4.6 mph - N/A   Clear
9:15 PM 24.8 °F 20.5 °F 17.6 °F 74% 30.15 in 10.0 mi WSW 3.5 mph - N/A   Clear
9:35 PM 23.0 °F 17.0 °F 17.6 °F 80% 30.16 in 10.0 mi WSW 4.6 mph - N/A   Clear
9:55 PM 23.0 °F 17.0 °F 17.6 °F 80% 30.16 in 10.0 mi WSW 4.6 mph - N/A   Clear
10:15 PM 23.0 °F 13.9 °F 17.6 °F 80% 30.16 in 10.0 mi WSW 8.1 mph - N/A   Clear
10:35 PM 23.0 °F 13.9 °F 17.6 °F 80% 30.16 in 10.0 mi WSW 8.1 mph - N/A   Clear
10:55 PM 23.0 °F 17.0 °F 17.6 °F 80% 30.15 in 10.0 mi West 4.6 mph - N/A   Clear
11:15 PM 23.0 °F 18.4 °F 17.6 °F 80% 30.14 in 10.0 mi West 3.5 mph - N/A   Clear
11:35 PM 23.0 °F - 17.6 °F 80% 30.13 in 10.0 mi Calm Calm - N/A   Clear
11:55 PM 23.0 °F - 19.4 °F 86% 30.13 in 10.0 mi Calm Calm - N/A   Clear